Regional Weather Roundup
Issued by NWS

Home | Current Version | Previous Version | Text Only | Print | Product List | Glossary On
Versions: 1 2 3 4 5 6 7 8 9 10 11 12 13 14 15 16 17 18 19 20 21 22 23 24 25 26 27 28 29 30 31 32 33 34 35 36 37 38 39 40 41 42 43 44 45 46 47 48 49 50
000
ASUS44 KFWD 282203
RWRTX
NORTH TEXAS HOURLY WEATHER ROUNDUP
NATIONAL WEATHER SERVICE FORT WORTH TX
500 PM CDT WED JUN 28 2017

NOTE: "FAIR" INDICATES FEW OR NO CLOUDS BELOW 12,000 FEET WITH NO
SIGNIFICANT WEATHER AND/OR OBSTRUCTIONS TO VISIBILITY.

TXZ118-119-282300-
DALLAS/FORT WORTH METROPLEX

CITY           SKY/WX    TMP DP  RH WIND       PRES   REMARKS
DFW AIRPORT    MOSUNNY   89  69  51 SE15G24   29.86F HX  93
DALLAS LOVE    MOSUNNY   90  68  48 SE16G25   29.87F HX  94
FTW MEACHAM    SUNNY     90  69  50 SE20      29.86F HX  94
DAL-EXECUTIVE  MOSUNNY   89  70  53 SE10G16   29.88F HX  94
FTW-ALLIANCE   MOSUNNY   88  69  53 S18G24    29.86F HX  92
FTW-NAS-JRB    MOSUNNY   91  70  49 SE8       29.87F HX  96
FTW-SPINKS     MOSUNNY   88  70  55 SE13G20   29.89F HX  92
ARLINGTON      MOSUNNY   89  68  49 SE13      29.88F HX  93
GRAND PRAIRIE  MOSUNNY   90  66  45 E12       29.89F HX  92
ADDISON        PTSUNNY   88  68  51 SE17G24   29.89F HX  91
MESQUITE       MOSUNNY   90  66  45 SE8G17    29.89F HX  92
LANCASTER      SUNNY     90  67  46 SE13G18   29.89F HX  93
$$

TXZ091>094-102>105-117-120-121-131>134-282300-
NORTH CENTRAL TEXAS

CITY           SKY/WX    TMP DP  RH WIND       PRES   REMARKS
SHRMAN/DENISON MOSUNNY   89  68  50 S13       29.89F HX  92
GAINESVILLE    SUNNY     87  67  51 S18       29.89F HX  90
BOWIE          MOSUNNY   89  68  50 S14G24    29.86F HX  92
BRIDGEPORT     MOSUNNY   88  66  47 S14G23    29.88F HX  90
DECATUR        MOSUNNY   89  67  49 SE17G23   29.88F HX  92
DENTON         MOSUNNY   89  69  51 S18       29.87F HX  93
MCKINNEY       MOSUNNY   88  72  58 SE17      29.88F HX  94
BONHAM         MOSUNNY   86  68  54 S13       29.89F
GREENVILLE     SUNNY     93  64  38 S12       29.89F HX  95
ROCKWALL       PTSUNNY   89  70  53 S14G22    29.89F HX  94
TERRELL        MOSUNNY   88  69  53 SE12      29.89F HX  92
WAXAHACHIE     SUNNY     89  70  52 SE7       29.90F HX  94
CLEBURNE       MOSUNNY   90  70  51 SE15      29.90F HX  95
GRANBURY       PTSUNNY   91  68  47 SE10G17   29.88F HX  94
$$

TXZ083>090-098>101-113>116-127>130-139>142-154-155-282300-
WESTERN NORTH TEXAS

CITY           SKY/WX    TMP DP  RH WIND       PRES   REMARKS
WICHITA FALLS  MOSUNNY   90  67  46 S26G35    29.81F HX  93
WF-KICKAPOO    SUNNY     91  68  47 SE22G31   29.84F HX  94
VERNON         SUNNY     94  56  26 S24       29.81S HX  92
ABILENE        SUNNY     91  66  43 SE21G29   29.85F HX  93
ABILENE-DYESS  SUNNY     93  65  39 S17G32    29.83F HX  94
GRAHAM         SUNNY     89  66  47 SE14G23   29.84F HX  91
BRECKENRIDGE   SUNNY     89  65  45 S16G25    29.86F HX  90
CISCO          SUNNY     88  68  51 S16G23    29.89F HX  91
EASTLAND       SUNNY     87  69  54 SE13      29.88F HX  91
RANGER         SUNNY     86  68  54 S18       29.89F
MINERAL WELLS  SUNNY     89  67  47 SE15G23   29.86F HX  92
STEPHENVILLE   MOSUNNY   88  67  50 S12       29.91F HX  90
COMANCHE       MOSUNNY   88  69  52 S16G23    29.89F HX  92
BROWNWOOD      SUNNY     86  66  51 S14G20    29.88F
COLEMAN        SUNNY     92  61  34 S15G23    29.88F HX  92
$$

TXZ143>147-156>162-174-175-282300-
CENTRAL TEXAS

CITY           SKY/WX    TMP DP  RH WIND       PRES   REMARKS
WACO           MOSUNNY   90  68  48 S13       29.88F HX  94
WACO-TSTC      SUNNY     90  68  48 SE9       29.88  HX  93
WACO-MCGREGOR  MOSUNNY   91  68  46 SE15      29.88F HX  95
HILLSBORO      SUNNY     90  69  50 SE9G17    29.89F HX  95
CORSICANA      MOSUNNY   91  71  51 SE13      29.90F HX  97
MEXIA          SUNNY     88  67  50 SE12G18   29.88F HX  91
HEARNE         PTSUNNY   90  71  53 NE8       29.88F HX  96
CAMERON        MOSUNNY   91  69  48 E12       29.87F HX  95
TEMPLE         MOSUNNY   90  68  48 SE15      29.89F HX  94
KILLEEN        MOSUNNY   88  69  51 SE13G21   29.88F HX  92
KILLEEN-SKYLRK PTSUNNY   89  70  53 SE15      29.89F HX  94
FORT HOOD      MOSUNNY   89  68  49 E14G20    29.86F HX  93
HAMILTON       MOSUNNY   89  67  47 SE13G18   29.91S HX  92
LAMPASAS       MOSUNNY   88  71  57 SE9       29.89S HX  93
$$

TXZ095>097-106>112-122>126-135>138-148>153-164>167-282300-
EAST TEXAS

CITY           SKY/WX    TMP DP  RH WIND       PRES   REMARKS
PARIS            N/A     88  71  57 SE13      29.90F HX  94
SULPHUR SPRNGS MOSUNNY   89  67  48 S8        29.92F HX  92
MOUNT PLEASANT SUNNY     86  67  52 SE8       29.92F
GILMER         PTSUNNY   87  67  51 SE7       29.91F HX  90
MINEOLA        SUNNY     88  70  55 S7        29.90F HX  92
TYLER          MOSUNNY   89  68  49 SE9       29.90F HX  93
LONGVIEW       MOSUNNY   89  71  55 S9        29.91F HX  95
MARSHALL         N/A     87  68  54 SE3       29.93F HX  90
ATHENS         MOSUNNY   88  68  51 SE8       29.89S HX  91
PALESTINE      MOSUNNY   87  70  57 E5        29.91S HX  91
JACKSONVILLE   SUNNY     89  69  51 SE9       29.93F HX  92
HENDERSON      MOSUNNY   89  70  52 SE5       29.92S HX  94
CENTER         PTCLDY    91  72  53 E9        29.92F HX  99
NACOGDOCHES    PTSUNNY   86  72  62 SE10      29.88F HX  92
LUFKIN         PTSUNNY   85  71  63 SE7       29.89F HX  90
$$

SUPPLEMENTAL OBSERVATIONS (NWS FORT WORTH AREA)

CITY           SKY/WX    TMP DP  RH WIND       PRES   REMARKS
$$

SUPPLEMENTAL OBSERVATIONS (NWS NORMAN AREA)

CITY           SKY/WX    TMP DP  RH WIND       PRES   REMARKS
GOODLETT         N/A     97  56  25 SE25G33   29.77F HX  96
ODELL            N/A     92  64  39 S21       29.81F HX  94
CROWELL          N/A     95  67  39 S28       29.79F HX  99
KNOX CITY        N/A     97  58  27 S22G29    29.81S HX  96
SEYMOUR          N/A     92  65  40 SE18G25   29.82F HX  94
$$

SUPPLEMENTAL OBSERVATIONS (NWS SAN ANGELO AREA)

CITY           SKY/WX    TMP DP  RH WIND       PRES   REMARKS
WEINERT          N/A     95  64  34 S22       29.82F HX  97
HASKELL          N/A     92  58  31 S17G24    29.82F HX  91
THROCKMORTON     N/A     88  71  57 SE12      29.86S HX  93
STAMFORD         N/A     94  62  34 S21       29.83F HX  95
CLYDE            N/A     89  68  49 SE20      29.89F HX  92
$$

SUPPLEMENTAL OBSERVATIONS (NWS SHREVEPORT AREA)

CITY           SKY/WX    TMP DP  RH WIND       PRES   REMARKS
$$

SUPPLEMENTAL OBSERVATIONS ARE A COLLECTION OF AUTOMATED INSTRUMENTS
THAT ARE MAINTAINED BY A VARIETY OF FEDERAL AND STATE AGENCIES.
CERTAIN ELEMENTS...SUCH AS HUMIDITY VALUES AND SUSTAINED WIND
SPEEDS...MAY BE APPROXIMATED.





USA.gov is the U.S. government's official web portal to all federal, state and local government web resources and services.